星链-34687 (STARLINK-34687)

导读 | 豆包AI

STARLINK-34687是美国SpaceX星链互联网星座中的一颗卫星,于2025年7月26日发射升空,归属美国所有。它作为星链低轨卫星星座组网的组成部分,承担着为全球范围内用户提供低延迟、高速率的宽带互联网接入服务,进一步补全星链星座的全球覆盖能力,推动星链星座服务覆盖范围与稳定性的提升。

基本信息
目录编号:
64909
目录名称:
STARLINK-34687
国际标识:
2025-157F
轨道中心:
EARTH
卫星名称:
星链-34687
卫星全名:
星链-34687 (STARLINK-34687)
卫星状态:
在轨 (已飞行277 天)
发射日期:
2025-07-26 UTC
国别 :
美国 (US)
星等 :
--
轨道信息
数据来源 国际轨道数据
星历时间: 2026-04-29T12:25:48+0800
6小时前
查看轨道信息
半长轴: 6853.311km
偏心率: 0.0000313
轨道倾角: 53.158°
近地点辐角 136.478°
升交点赤经 111.201°
平近点角 223.624°
近地点: 474.959km
远地点: 475.389km
周期: 94.104分钟
每日圈数: 15.30214
详细信息
固有亮度:
5
最大亮度:
2.5
卫星平台:
Starlink V1.0
覆盖范围:
全球
运营商:
太空探索技术公司
运营商所在国:
美国
制造商(研发单位):
太空探索技术公司
制造商所在国:
美国
使用方式:
暂无
卫星简介
Starlink 计划是 SpaceX 推出的全球卫星互联网项目,通过发射低轨道卫星,为全球尤其是偏远地区提供高速、低延迟的互联网服务。自 2019 年起,Starlink 已部署数千颗卫星,旨在缩小全球数字鸿沟,推动互联网普及。该项目还为军事、航空等行业提供通信支持,带来广泛经济效益。
2D轨道图
3D轨道图
轨道高度分析图
轨道倾角分析图
轨道综合分析图
查看轨道综合分析图